Location: Newark
(0.0900°N, 123.8300°E)
Time: 08:57:45
(UTC+00:00)

X-37B - Visible Passes

Search period start: 20 September 2020 00:00
Search period end: 30 September 2020 00:00
Orbit: 386 x 387 km, 45.0° (Epoch: 18 September)

Date Brightness Start Highest point End Pass type
(mag) Time Alt. Az. Time Alt. Az. Time Alt. Az.
24 Sep 2.7 11:06:57 10° SSW 11:08:12 21° SSW 11:08:12 21° SSW visible
25 Sep 2.2 10:09:08 10° S 10:11:32 20° SE 10:13:18 13° E visible
26 Sep 1.8 10:46:27 10° WSW 10:49:27 40° NW 10:50:48 25° N visible
28 Sep 3.5 10:27:00 10° W 10:28:51 15° NW 10:30:43 10° N visible
28 Sep 3.6 20:21:37 10° NNE 20:23:02 12° NE 20:24:29 10° ENE visible
29 Sep 0.5 20:57:50 10° NW 21:00:59 73° SW 21:04:08 10° SE visible
